Regional Weather Roundup
Issued by NWS Boston, MA

Home | Current Version | Previous Version | Text Only | Print | Product List | Glossary On
Versions: 1 2 3 4 5 6 7 8 9 10 11 12 13 14 15 16 17 18 19 20 21 22 23 24 25 26 27 28
000
ASUS41 KBOX 242110
RWRBOX

REGIONAL WEATHER ROUNDUP
NATIONAL WEATHER SERVICE TAUNTON MA
400 PM EST FRI NOV 24 2017

NOTE:  "FAIR" INDICATES FEW OR NO CLOUDS BELOW 12,000 FEET WITH NO
SIGNIFICANT WEATHER AND/OR OBSTRUCTIONS TO VISIBILITY.

MAZALL-242200-
EASTERN MASSACHUSETTS

CITY           SKY/WX    TMP DP  RH WIND       PRES   REMARKS
BOSTON         PTCLDY    47  27  45 S13       29.93S
BEVERLY        CLEAR     47  26  44 SW3       29.92S
LAWRENCE       CLEAR     50  27  40 SW7       29.94S
BEDFORD        CLEAR     47  25  42 SW7       29.92R
BLUE HILL        N/A     45  24  43 S12G21    29.91S
NORWOOD        CLEAR     48  27  44 S8        29.94S
MARSHFIELD     CLEAR     48  27  43 SW5       29.94S
PLYMOUTH       CLEAR     47  28  47 S9        29.96S
TAUNTON        CLEAR     46  29  51 S7        29.95F
NEW BEDFORD    CLEAR     45  31  58 SW6       29.96S
$$

MAZALL-242200-
CAPE COD AND THE ISLANDS

CITY           SKY/WX    TMP DP  RH WIND       PRES   REMARKS
FALMOUTH       CLEAR     45  32  61 SW8       29.98S
HYANNIS        CLEAR     46  30  53 SW8       29.96S
CHATHAM        CLEAR     46  35  65 SW7       29.98S
PROVINCETOWN   CLEAR     46  31  55 SW14      29.96
NANTUCKET      CLEAR     46  37  71 SW10      29.99R
MARTHAS VNYRD  CLEAR     45  31  58 SW6       29.98S
$$

MAZALL-242200-
CENTRAL AND WESTERN MASSACHUSETTS

CITY           SKY/WX    TMP DP  RH WIND       PRES   REMARKS
WORCESTER      CLEAR     45  23  42 S7        29.91S
FITCHBURG      CLEAR     49  26  41 SW6       29.91F
ORANGE         CLEAR     45  27  49 S7        29.90F
SPRINGFIELD    PTCLDY    47  24  40 S9        29.90F
WESTFIELD      CLEAR     47  24  40 S9        29.91S
NORTH ADAMS    CLEAR     43  28  55 NE5       29.87F
PITTSFIELD     CLEAR     45  21  38 S7        29.87F
$$

RIZALL-242200-
RHODE ISLAND

CITY           SKY/WX    TMP DP  RH WIND       PRES   REMARKS
PROVIDENCE     CLEAR     47  29  49 SW10      29.96F
NEWPORT        CLEAR     45  31  58 VRB6      29.96F
BLOCK ISLAND     N/A     47  35  63 MISG        N/A
SMITHFIELD     CLEAR     46  26  45 SW3       29.94S
WESTERLY       CLEAR     48  32  53 W6        29.98S
$$

CTZALL-242200-
CONNECTICUT

CITY           SKY/WX    TMP DP  RH WIND       PRES   REMARKS
BRADLEY INTL   PTCLDY    48  24  39 S10       29.92F
HARTFORD       CLEAR     48  27  44 S8        29.94F
BRIDGEPORT     CLEAR     48  30  49 SW7       29.96F
DANBURY        CLEAR     49  23  36 S6        29.95S
GROTON         CLEAR     46  30  53 SW6       29.96F
NEW HAVEN      CLEAR     46  32  58 S5        29.96F
CHESTER        FAIR      46  30  53 S6        29.95F
MERIDEN        CLEAR     45  25  45 S6        29.95F
WILLIMANTIC    CLEAR     48  27  44 S10       29.95S
OXFORD         CLEAR     46  26  45 S8        29.94S
$$

MEZ002-015-021-024-NHZ003-005-008-011-012-014-VTZ005-008-242200-
NORTHERN NEW ENGLAND

CITY           SKY/WX    TMP DP  RH WIND       PRES   REMARKS
PORTLAND ME    CLEAR     44  28  53 SW9G18    29.92R
BANGOR ME      MOCLDY    42  27  55 S7        29.91R
CONCORD NH     CLEAR     46  29  51 S5        29.89F
MANCHESTER NH  PTCLDY    48  28  46 S6        29.89F
NASHUA NH      CLEAR     47  28  47 CALM      29.92S
PORTSMOUTH NH  PTCLDY    45  27  49 S7        29.90F
JAFFREY NH     CLEAR     43  27  53 S7        29.89F
KEENE NH       CLEAR     46  27  47 S6        29.89F
BURLINGTON VT  PTCLDY    44  27  51 S12       29.80F
MT. WASHINGTON MOCLDY    30  23  74 W49         N/A  WCI  12
$$

NYZ052-076-242200-
EASTERN NEW YORK

CITY           SKY/WX    TMP DP  RH WIND       PRES   REMARKS
ALBANY         PTCLDY    47  25  42 S13       29.87F
NEW YORK CITY  PTCLDY    51  21  30 SW6       29.95F
$$

ANZALL-242200-
MARINE OBSERVATIONS

STATION/POSITION TIME  TEMP    WIND        PRES    VSBY  WAVE
                       AIR SEA DIR/SP/G                  HT/PER
                 (UTC) (F)     (DEG/KT/KT) (MB)    (MI)  (FT/S)
BOSTON BUOY      2050   49 50  190/ 12/ 16 1012.4F         2/10
BUZZARDS BAY     2000   46     230/ 11/ 13 1015.4F
NANTUCKET SOUND  2050   47 49  250/ 12/ 14 1015.1S         1/ 9
MASS BAY-STELLWA 2004   46 49  180/ 10/ 10 1012.6F         2/11
ISLE OF SHOALS   2000   46     200/ 12/ 13 1013.3S
S OF BLOCK IS    NOT AVBL
$$

......................KEY.........................
  SKY/WX - SKY CONDITION/PRESENT WEATHER
  TMP    - TEMPERATURE IN FAHRENHEIT
  DWPT   - DEWPOINT IN FAHRENHEIT
  RH     - RELATIVE HUMIDITY IN PERCENT
  WIND   - DIRECTION AND SPEED IN MPH
  PRES   - MEAN SEA LEVEL PRESSURE IN INCHES OF HG
  WCI    - WIND CHILL INDEX
  VSB    - VISIBILITY IN MILES
  HX     - HEAT INDEX
  TC     - TEMPERATURE IN CELSIUS
  VRB    - VARIABLE WIND DIRECTION
  N/A    - NOT AVAILABLE




USA.gov is the U.S. government's official web portal to all federal, state and local government web resources and services.